Погода в Ханьдани

Китай     36°36′27″N   114°28′36″E
темп.,
°C
ветер,
м/с
пор.,
м/с
влажн.,
%
обл.,
%
осадки,
мм/ч
давл.,
гПа
погр.,
м
6 марта, сб
сб623:00+3с91363100 0.0 1031937
02:00+1с81289100 0.1 1034882
05:000ссв81273100 0.1 1035897
08:000ссв61053100 0.2 1037944
11:00+2ссв6935100 0.0 10371079
14:00+5св572899 0.0 10341111
17:00+5св453199 0.0 10331049
20:00+3всв353696 0.0 1034533
7 марта, вс
вс723:00+2в2440100 0.0 1035362
02:00+1всв1143100 0.0 103473
05:00+1в124397 0.0 1032122
08:00+1в124096 0.0 1032196
11:00+6всв113195 0.0 1031692
14:00+9юв223054 0.0 10281025
17:00+10юв23300 0.0 10261043
20:00+8юв23370 0.0 102894
8 марта, пн
пн823:00+6ююв2242100 0.0 102960
02:00+5ю1246100 0.0 102832
05:00+5ю1249100 0.0 102733
08:00+6ююв1249100 0.0 102896
11:00+11ю3545100 0.0 1027765
14:00+14ю4538100 0.0 10241280
17:00+14ю5640100 0.0 10221189
20:00+11ю4953100 0.0 1024342
9 марта, вт
вт923:00+10ююз41057100 0.0 1025317
02:00+8ююз366695 0.0 1025130
05:00+7ююз367127 0.0 1024104
08:00+8ююз366914 0.0 1026191
11:00+15ююз45440 0.0 1026736
14:00+19ю45360 0.0 10241290
17:00+18ю56410 0.0 10231238
20:00+14ююв495744 0.0 1025226
10 марта, ср
ср1023:00+12ю51168100 0.0 1026354
02:00+10ю4107859 0.0 1027265
05:00+9ю3686100 0.0 1026152
08:00+10ю4784100 0.0 1026259
11:00+15ю5759100 0.0 10251126
14:00+16ю5749100 0.0 10231514
17:00+16ю5647100 0.0 10221592
20:00+13юз3564100 0.0 1023308